User: anonymous   Login
Location: Caltech
(34.1382°N, 118.1253°W)
Time: 08:33:30
(UTC-07:00)
Language:

AO-27 - Orbit

View from above orbital plane
View from above orbital plane
View from above satellite
View from above satellite

Ground track
Ground track

The orbit data is extracted from the following two-line orbital elements,

1 22825U 93061C   15116.43979183  .00000214  00000-0  10056-3 0  9998
2 22825 098.7041 066.5488 0009554 098.8818 048.6985 14.29868400125541
Epoch (UTC): 26 April 2015 10:33:18
Eccentricity: 0.0009554
inclination: 98.7041°
perigee height: 785 km
apogee height: 799 km
right ascension of ascending node: 66.5488°
argument of perigee: 98.8818°
revolutions per day: 14.29868400
mean anomaly at epoch: 48.6985°
orbit number at epoch: 12554

The dashed part of the orbit path shows where the satellite is in the earth's shadow,  

DLR